Bismarck, ND

1:05 PM CDT on August 28, 2016 (GMT -0500)
Bismarck Municipal

Weather History for KBIS - December, 2011

Change the Weather History Date:

Monday, December 19, 2011

  Actual Average Record
Temperature  
Mean Temperature 25 °F 15 °F  
Max Temperature 33 °F 25 °F 59 °F (1894)
Min Temperature 16 °F 5 °F -36 °F (1983)
Degree Days  
Heating Degree Days 40 50  
Month to date heating degree days 828 898  
Since 1 July heating degree days 2562 2884  
Cooling Degree Days 0 0  
Month to date cooling degree days 0 0  
Year to date cooling degree days 425 520  
Moisture  
Dew Point 17 °F    
Average Humidity 69    
Maximum Humidity 88    
Minimum Humidity 49    
Precipitation  
Precipitation 0.00 in 0.02 in 0.27 in (1884)
Month to date precipitation 0.18 0.29  
Year to date precipitation 22.93 17.65  
Snow  
Snow 0.00 in 0.30 in 4.60 in (1960)
Month to date snowfall 2.0 5.3  
Since 1 July snowfall 2.6 16.5  
Snow Depth T in    
Sea Level Pressure  
Sea Level Pressure 30.26 in    
Wind  
Wind Speed 7 mph (WNW)    
Max Wind Speed 24 mph    
Max Gust Speed 32 mph    
Visibility 10 miles    
Events      
T = Trace of Precipitation, MM = Missing Value Source: NWS Daily Summary

Daily Weather History Graph

Daily Weather History Graph

Search for Another Location

Airport or City:

Trip Planner

Search our weather history database for the weather conditions in past years. The results will help you decide how hot, cold, wet, or windy it might be!

Date:

Astronomy

Dec. 19, 2011 Rise Set
Actual Time 8:23 AM CST 4:56 PM CST
Civil Twilight 7:48 AM CST 5:31 PM CST
Nautical Twilight 7:09 AM CST 6:10 PM CST
Astronomical Twilight 6:32 AM CST 6:47 PM CST
Moon 2:22 AM CST (12/19) 1:08 PM CST (12/19)
Length of Visible Light 9h 43m
Length of Day
8h 32m
Waning Crescent, 31% of the Moon is Illuminated
Dec 19
Waning Crescent
Dec 24
New
Jan 1
First Quarter
Jan 9
Full
Jan 16
Last Quarter

Hourly Weather History & Observations

Time (CST) Temp. Windchill Dew Point Humidity Pressure Visibility Wind Dir Wind Speed Gust Speed Precip Events Conditions
12:11 AM 30.2 °F 17.8 °F 24.8 °F 80% 30.04 in 10.0 mi NNW 19.6 mph 25.3 mph N/A   Mostly Cloudy
12:52 AM 30.0 °F 22.4 °F 23.0 °F 75% 30.10 in 10.0 mi NNW 8.1 mph 19.6 mph N/A   Overcast
1:33 AM 28.4 °F 14.7 °F 21.2 °F 74% 30.07 in 10.0 mi North 21.9 mph 32.2 mph N/A   Scattered Clouds
1:52 AM 28.4 °F 16.2 °F 21.2 °F 74% 30.08 in 10.0 mi North 17.3 mph 28.8 mph N/A   Scattered Clouds
2:52 AM 26.6 °F 17.5 °F 19.4 °F 74% 30.14 in 10.0 mi NW 9.2 mph - N/A   Partly Cloudy
3:52 AM 25.0 °F 14.8 °F 19.9 °F 81% 30.22 in 10.0 mi WNW 10.4 mph - N/A   Clear
4:52 AM 23.0 °F 12.4 °F 19.0 °F 85% 30.25 in 10.0 mi WNW 10.4 mph - N/A   Clear
5:52 AM 21.2 °F 11.7 °F 17.6 °F 86% 30.20 in 10.0 mi WNW 8.1 mph - N/A   Clear
6:52 AM 21.9 °F 10.4 °F 18.0 °F 85% 30.30 in 10.0 mi NW 11.5 mph 17.3 mph N/A   Clear
7:52 AM 21.9 °F 11.0 °F 18.0 °F 85% 30.32 in 10.0 mi NW 10.4 mph - N/A   Clear
8:52 AM 21.0 °F 12.4 °F 17.1 °F 85% 30.35 in 10.0 mi WNW 6.9 mph - N/A   Clear
9:52 AM 21.9 °F 11.0 °F 17.1 °F 82% 30.37 in 10.0 mi WNW 10.4 mph - N/A   Clear
10:52 AM 26.1 °F 16.8 °F 18.0 °F 71% 30.39 in 10.0 mi NW 9.2 mph - N/A   Clear
11:52 AM 28.9 °F 22.8 °F 19.0 °F 67% 30.38 in 10.0 mi WNW 5.8 mph - N/A   Clear
12:52 PM 30.2 °F 20.8 °F 17.6 °F 60% 30.29 in 10.0 mi WNW 11.5 mph - N/A   Clear
1:52 PM 32.0 °F 27.5 °F 19.0 °F 59% 30.35 in 10.0 mi WNW 4.6 mph - N/A   Clear
2:52 PM 33.1 °F 26.1 °F 17.1 °F 52% 30.33 in 10.0 mi NNW 8.1 mph - N/A   Clear
3:52 PM 32.0 °F 24.8 °F 15.1 °F 50% 30.32 in 10.0 mi West 8.1 mph - N/A   Clear
4:52 PM 27.0 °F 21.6 °F 15.1 °F 61% 30.31 in 10.0 mi West 4.6 mph - N/A   Clear
5:52 PM 23.0 °F - 14.0 °F 68% 30.31 in 10.0 mi Calm Calm - N/A   Clear
6:52 PM 19.9 °F 14.9 °F 12.9 °F 74% 30.30 in 10.0 mi SSW 3.5 mph - N/A   Clear
7:52 PM 21.0 °F 12.4 °F 15.1 °F 78% 30.29 in 10.0 mi South 6.9 mph - N/A   Clear
8:52 PM 18.0 °F 12.7 °F 12.9 °F 81% 30.27 in 10.0 mi WSW 3.5 mph - N/A   Clear
9:52 PM 18.0 °F - 12.9 °F 81% 30.27 in 10.0 mi Calm Calm - N/A   Clear
10:52 PM 21.0 °F - 14.0 °F 74% 30.22 in 10.0 mi Calm Calm - N/A   Clear
11:52 PM 21.0 °F - 14.0 °F 74% 30.19 in 10.0 mi Calm Calm - N/A   Clear